User: anonymous
Location: NJAA Observatory
(40.6819°N, 74.8979°W)
Time: 18:19:39
(UTC-04:00)
Language:

Landsat 5 - Orbit

View from above orbital plane
View from above orbital plane
View from above satellite
View from above satellite

Ground track
Ground track

The orbit data is extracted from the following two-line orbital elements,

1 14780U 84021A   14274.46824285  .00002897  00000-0  28940-3 0  4483
2 14780 098.0482 353.5788 0095524 183.6813 269.5411 14.88961149628439
Epoch (UTC): 01 October 2014 11:14:16
Eccentricity: 0.0095524
inclination: 98.0482°
perigee height: 534 km
apogee height: 668 km
right ascension of ascending node: 353.5788°
argument of perigee: 183.6813°
revolutions per day: 14.88961149
mean anomaly at epoch: 269.5411°
orbit number at epoch: 62843

The dashed part of the orbit path shows where the satellite is in the earth's shadow,  

DLR